User: anonymous   Login
Location: Walnut Point State Park
(39.6958°N, 88.0345°W)
Time: 07:49:38
(UTC-06:00)
Language:

ATLAS 3B R/B - Orbit

View from above orbital plane
View from above orbital plane
View from above satellite
View from above satellite

Ground track
Ground track

The orbit data is extracted from the following two-line orbital elements,

1 28538U 05004B   16345.18665556 0.00000000  00000-0  00000-0 0    09
2 28538  63.8218  53.0446 0156000 190.4837 169.5163 13.43091968    07
Epoch (UTC): 10 December 2016 04:28:47
Eccentricity: 0.0156000
inclination: 63.8218°
perigee height: 981 km
apogee height: 1214 km
right ascension of ascending node: 53.0446°
argument of perigee: 190.4837°
revolutions per day: 13.43091968
mean anomaly at epoch: 169.5163°
orbit number at epoch: 0

The dashed part of the orbit path shows where the satellite is in the earth's shadow,  

DLR